FW5830 Weather Reports


time (UTC)temp
C
wind
direction
speed
KPH
gust
KPH
rain 1hr
cm
rain 24hr
cm
rain mn
cm
humidity
%
barometer
mb
20260903091603 19 328 1.6 8.0 0.00 0.00 0.00 44 1017.6
20260903090053 18 327 3.2 8.0 0.00 0.00 0.00 45 1017.6
20260903084600 18 321 1.6 3.2 0.00 0.00 0.00 47 1017.6
20260903083104 18 321 1.6 4.8 0.00 0.00 0.00 49 1017.7
20260903081555 18 321 0.0 1.6 0.00 0.00 0.00 51 1017.7
20260903080059 18 321 0.0 6.4 0.00 0.00 0.00 48 1017.7
20260903074557 18 318 4.8 6.4 0.00 0.00 0.00 50 1017.8
20260903073112 18 314 0.0 3.2 0.00 0.00 0.00 50 1018.0
20260903071551 18 0 0.0 1.6 0.00 0.00 0.00 51 1018.0
20260903070103 18 314 0.0 1.6 0.00 0.00 0.00 54 1018.2
20260903064558 18 314 0.0 3.2 0.00 0.00 0.00 53 1018.3
20260903063104 18 314 1.6 4.8 0.00 0.00 0.00 51 1018.2
20260903061552 19 0 0.0 1.6 0.00 0.00 0.00 52 1018.1
20260903060100 18 0 0.0 1.6 0.00 0.00 0.00 54 1018.0
20260903054553 18 314 0.0 3.2 0.00 0.00 0.00 55 1018.3
20260903053057 18 314 0.0 4.8 0.00 0.00 0.00 56 1018.4
20260903051556 18 320 0.0 6.4 0.00 0.00 0.00 57 1018.2
20260903050055 18 326 4.8 8.0 0.00 0.00 0.00 56 1018.4
20260903044549 19 0 0.0 1.6 0.00 0.00 0.00 55 1018.3
20260903043108 19 0 0.0 1.6 0.00 0.00 0.00 52 1018.5
20260903041555 19 0 0.0 4.8 0.00 0.00 0.00 53 1018.6
20260903040052 19 63 0.0 8.0 0.00 0.00 0.00 55 1018.4
20260903034559 18 86 0.0 4.8 0.00 0.00 0.00 58 1018.4
20260903033058 18 122 0.0 4.8 0.00 0.00 0.00 57 1018.6
20260903031555 18 0 0.0 4.8 0.00 0.00 0.00 59 1018.3
20260903030107 20 134 1.6 4.8 0.00 0.00 0.00 57 1018.2
20260903024554 20 129 6.4 11.3 0.00 0.00 0.00 50 1018.4
20260903023051 22 101 4.8 11.3 0.00 0.00 0.00 43 1018.4
20260903021556 23 110 4.8 14.5 0.00 0.00 0.00 36 1018.0
20260903020053 23 109 6.4 17.7 0.00 0.00 0.00 35 1017.5
20260903014555 23 125 11.3 19.3 0.00 0.00 0.00 34 1017.2
20260903013055 24 145 4.8 12.9 0.00 0.00 0.00 34 1017.1
20260903011557 25 129 8.0 14.5 0.00 0.00 0.00 33 1016.9
20260903010051 25 119 8.0 11.3 0.00 0.00 0.00 31 1016.9
20260903004603 25 117 4.8 9.7 0.00 0.00 0.00 31 1016.7
20260903003055 25 116 6.4 17.7 0.00 0.00 0.00 30 1016.6
20260903001559 26 128 8.0 14.5 0.00 0.00 0.00 27 1016.7
20260903000057 26 139 11.3 17.7 0.00 0.00 0.00 28 1016.7
20260902234555 26 145 11.3 24.1 0.00 0.00 0.00 27 1016.7
20260902233101 27 118 8.0 27.4 0.00 0.00 0.00 26 1016.5
20260902231600 27 143 3.2 8.0 0.00 0.00 0.00 24 1016.8
20260902230104 28 191 0.0 3.2 0.00 0.00 0.00 25 1016.7
20260902224556 28 191 0.0 3.2 0.00 0.00 0.00 24 1016.5
20260902223116 28 311 0.0 4.8 0.00 0.00 0.00 23 1016.5
20260902221556 28 321 1.6 8.0 0.00 0.00 0.00 23 1016.5
20260902220054 28 124 0.0 4.8 0.00 0.00 0.00 24 1016.6
20260902214556 28 124 1.6 6.4 0.00 0.00 0.00 23 1016.8
20260902213054 29 302 1.6 4.8 0.00 0.00 0.00 22 1016.9
20260902211555 30 0 1.6 9.7 0.00 0.00 0.00 21 1017.0
20260902210058 30 27 1.6 8.0 0.00 0.00 0.00 20 1017.2
20260902204634 30 306 0.0 6.4 0.00 0.00 0.00 20 1017.4
20260902203055 30 212 1.6 12.9 0.00 0.00 0.00 20 1017.7
20260902201600 30 269 1.6 9.7 0.00 0.00 0.00 21 1017.8
20260902200059 30 251 1.6 6.4 0.00 0.00 0.00 21 1018.1
20260902194554 30 207 3.2 9.7 0.00 0.00 0.00 21 1018.2
20260902193059 29 202 1.6 11.3 0.00 0.00 0.00 22 1018.4
20260902191556 29 269 3.2 9.7 0.00 0.00 0.00 21 1018.7
20260902190100 28 307 1.6 9.7 0.00 0.00 0.00 23 1019.0
20260902184559 28 310 1.6 9.7 0.00 0.00 0.00 24 1019.2
20260902183111 28 0 3.2 9.7 0.00 0.00 0.00 23 1019.5
20260902181613 28 0 1.6 8.0 0.00 0.00 0.00 23 1019.7
20260902180050 28 245 3.2 9.7 0.00 0.00 0.00 25 1019.9
20260902174601 27 325 3.2 16.1 0.00 0.00 0.00 25 1020.0
20260902173111 27 320 3.2 9.7 0.00 0.00 0.00 25 1020.2
20260902171557 27 314 1.6 6.4 0.00 0.00 0.00 26 1020.4
20260902170058 27 0 1.6 6.4 0.00 0.00 0.00 26 1020.5
20260902164603 26 330 3.2 6.4 0.00 0.00 0.00 27 1020.5
20260902163052 26 295 1.6 6.4 0.00 0.00 0.00 27 1020.4
20260902161600 25 312 3.2 6.4 0.00 0.00 0.00 27 1020.5
20260902160055 25 0 0.0 4.8 0.00 0.00 0.00 30 1020.6
20260902154553 25 312 3.2 8.0 0.00 0.00 0.00 32 1020.6
20260902153108 24 322 1.6 8.0 0.00 0.00 0.00 33 1020.5
20260902151553 24 309 1.6 6.4 0.00 0.00 0.00 32 1020.5
20260902150055 23 309 3.2 6.4 0.00 0.00 0.00 32 1020.5
20260902144551 24 316 1.6 4.8 0.00 0.00 0.00 32 1020.6
20260902143057 24 0 0.0 1.6 0.00 0.00 0.00 31 1020.5
20260902141554 23 0 0.0 3.2 0.00 0.00 0.00 32 1020.6
20260902140057 22 0 0.0 1.6 0.00 0.00 0.00 32 1020.4
20260902134612 20 0 0.0 1.6 0.00 0.00 0.00 36 1020.4
20260902133101 18 332 0.0 6.4 0.00 0.00 0.00 38 1020.4
20260902131553 -17 0.0 0.0 0.00 0.00 0.00 1020.3
20260902130105 -17 0.0 0.0 0.00 0.00 0.00 1020.0
20260902124552 -17 0.0 0.0 0.00 0.00 0.00 1020.0
20260902123056 -17 0.0 0.0 0.00 0.00 0.00 1019.7
20260902121556 -17 0.0 0.0 0.00 0.00 0.00 1019.8
20260902120053 -17 0.0 0.0 0.00 0.00 0.00 1019.7
20260902114553 -17 0.0 0.0 0.00 0.00 0.00 1019.6
20260902113058 17 0.0 0.0 0.00 0.00 0.00 48 1019.4
20260902111601 17 114 0.0 1.6 0.00 0.00 0.00 45 1019.5
20260902110100 18 110 0.0 1.6 0.00 0.00 0.00 45 1019.4
20260902104616 18 111 3.2 6.4 0.00 0.00 0.00 45 1019.4
20260902103111 18 89 0.0 3.2 0.00 0.00 0.00 45 1019.4
20260902101603 18 0 0.0 1.6 0.00 0.00 0.00 44 1019.2
20260902100055 19 0 0.0 1.6 0.00 0.00 0.00 43 1019.4
20260902094557 19 50 1.6 3.2 0.00 0.00 0.00 42 1019.4
20260902093057 20 46 1.6 3.2 0.00 0.00 0.00 42 1019.5